Location: Couloutre
(47.4081°N, 3.2259°E)
Time: 03:35:51
(UTC+00:00)

Cosmos 1933 Rocket - Pass Details

Date: 27 February 2020
Orbit: 607 x 630 km, 82.5° (Epoch: 09 April)

Event Time Altitude Azimuth Distance (km) Brightness Sun altitude
Rises 17:54:49 0° 171° (S) 2,889 7.0 -5.3°
Reaches altitude 10° 17:57:06 10° 165° (SSE) 1,984 6.1 -5.7°
Maximum altitude 18:01:17 45° 93° (E) 849 3.9 -6.4°
Drops below altitude 10° 18:05:28 10° 21° (NNE) 1,986 5.9 -7.1°
Sets 18:07:45 0° 15° (NNE) 2,892 6.8 -7.5°
